Location: Armstrong Village
(14.3346°N, 120.9854°E)
Time: 02:47:30
(UTC+00:00)

Cosmos 2228 Rocket - Pass Details

Date: 13 January 2026
Orbit: 612 x 647 km, 82.5° (Epoch: 16 February)

Event Time Altitude Azimuth Distance (km) Brightness Sun altitude
Rises 10:59:26 0° 170° (S) 2,947 6.6 -17.7°
Reaches altitude 10° 11:01:46 10° 163° (SSE) 2,037 5.7 -18.2°
Maximum altitude 11:06:02 42° 93° (E) 915 3.4 -19.2°
Enters shadow 11:06:18 42° 83° (E) 921 3.4 -19.3°
